{"data":{"norad_id":40367,"intl_designator":"2014-090A","name":"FENGYUN 2G","alt_names":[],"object_type":"PAYLOAD","status":"ACTIVE","operator":null,"country":"PRC","launch_date":"2014-12-31","launch_site_code":"XICLF","launch_vehicle":null,"mission":null,"orbit_class":"UNKNOWN","rcs_meters":23.1149,"size_class":null,"mass_kg":null,"dimensions":null,"purposes":["comms","earth_obs"],"wikipedia_slug":null,"has_3d_model":false,"image_url":null,"decayed_at":null,"tle_current":{"epoch":"2026-05-24T17:56:57.599232Z","epoch_age_seconds":110909,"freshness":"FRESH","line1":"1 40367U 14090A   26144.74788888 -.00000301  00000+0  00000+0 0  9992","line2":"2 40367   5.5826  73.0946 0002791 140.6485  37.1308  1.00260302 41768","mean_motion":1.00260302,"eccentricity":0.0002791,"inclination_deg":5.5826,"raan_deg":73.0946,"arg_perigee_deg":140.6485,"mean_anomaly_deg":37.1308,"bstar":0,"rev_number":4176,"period_min":1436.2613828951,"perigee_km":35778.045294946,"apogee_km":35801.583445401,"semimajor_km":42167.951370173,"source":"CELESTRAK","updated_at":"2026-05-25T13:38:13.954394Z"}}}